Location: Bl�chereck
(48.5524°N, 8.1708°E)
Time: 10:44:39
(UTC+00:00)

Daily predictions for brighter satellites

Satellite Brightness Start Highest point End
(mag) Time Altitude Azimuth Time Altitude Azimuth Time Altitude Azimuth
BREEZE-M DEB (TANK) 3.6 19:27:16 10° SSW 19:30:30 40° SE 19:39:48 10° ENE
SL-16 R/B 2.5 19:34:41 10° NNW 19:40:18 57° ENE 19:45:52 10° SE
Cosmos 1151 Rocket 4.3 19:37:10 10° NNE 19:40:49 25° ENE 19:44:28 10° SE
ATLAS 5 CENTAUR R/B 4.0 19:39:53 10° NNW 19:43:43 21° NNE 19:48:02 10° ENE
Terra 3.8 19:41:34 10° E 19:44:21 16° ENE 19:47:09 10° NNE
RESURS DK-1 3.6 19:41:16 10° SW 19:45:18 47° NW 19:49:21 10° NNE
Cosmos 332 Rocket 3.9 19:42:06 10° NNW 19:47:02 86° ENE 19:51:56 10° SSE
Meteor 2-3 Rocket 4.1 19:41:48 10° SSE 19:47:12 48° E 19:52:42 10° NNE
SPOT 3 Rocket 3.8 19:42:58 10° SSE 19:48:06 60° ENE 19:53:14 10° N
Cosmos 1933 3.4 19:48:07 10° N 19:52:09 61° ENE 19:56:07 10° SSE
Cosmos 1271 Rocket 3.0 19:49:28 10° N 19:53:24 54° ENE 19:57:20 10° SSE
Gbstr 26 Del rocket 3.0 19:50:50 10° WNW 19:54:29 56° SSW 19:58:12 11° SE
Cosmos 1538 Rocket 4.1 19:51:07 10° SSW 19:56:19 83° WNW 20:01:32 10° NNE
OBJECT-B 3.5 19:55:07 10° SW 19:57:30 19° W 19:59:56 10° NW
SPOT 5 4.0 19:57:35 10° ESE 20:01:08 25° ENE 20:04:47 10° N
IGS 5A 3.5 19:57:22 10° SSE 20:01:31 84° WSW 20:05:41 10° NNW
Cosmos 2098 Rocket 3.1 19:58:23 10° SSW 20:01:39 61° WNW 20:05:40 10° N
ARIANE 5 R/B 3.7 19:58:58 11° SE 20:02:47 31° ENE 20:06:41 10° N
Meteor 2-19 Rocket 4.4 19:57:03 10° S 20:03:03 73° E 20:09:07 10° NNE
Ariane Rocket 3.7 20:02:15 10° S 20:07:13 55° W 20:12:13 10° NNW
Cosmos 1782 3.0 20:04:08 10° N 20:08:05 54° ENE 20:11:44 12° SSE
Landsat 7 3.9 20:03:55 10° SSE 20:08:40 83° WSW 20:13:28 10° NNW
Cosmos 1624 Rocket 4.5 20:06:42 10° NNW 20:11:45 48° ENE 20:16:05 14° SE
Cosmos 304 Rocket 4.2 20:07:49 10° NNW 20:12:33 61° WSW 20:17:15 10° S
Cosmos 2082 Rocket 3.6 20:07:52 10° SW 20:13:14 43° NW 20:18:38 10° NNE
Cosmos 220 Rocket 4.2 20:10:43 10° NNW 20:15:01 59° ENE 20:18:36 15° SE
ATLAS 3B R/B 3.9 20:12:42 10° NW 20:19:11 39° WSW 20:25:52 10° S
Cosmos 2360 Rocket 2.6 20:13:50 10° NNW 20:19:22 54° ENE 20:23:55 15° SE
ATLAS 2AS CENTAUR R/B 4.2 20:14:48 10° WSW 20:22:20 45° NW 20:29:36 10° NE
MetOp-B 4.2 20:19:09 10° SSE 20:24:31 81° WSW 20:29:55 10° NNW
Cosmos 1174 4.4 20:21:53 10° NNW 20:24:37 30° NE 20:26:29 16° E
Cosmos 1092 Rocket 4.1 20:20:34 10° S 20:26:51 88° W 20:33:14 10° N
ISS -1.2 20:28:45 10° WSW 20:30:07 12° SW 20:31:28 10° SSW
Cosmos 2151 3.9 20:27:36 10° SSW 20:31:45 51° WNW 20:35:57 10° N
NOSS 2-1 (C) 3.2 20:28:40 10° SSW 20:31:48 40° SE 20:34:57 10° NE
ERS-2 3.5 20:30:21 10° N 20:33:48 41° WNW 20:37:13 10° SW
Cosmos 2026 Rocket 4.0 20:29:31 10° S 20:35:51 88° E 20:42:08 10° N
Cosmos 2084 3.3 20:33:20 10° SSW 20:37:20 62° SE 20:41:28 10° NE
COSMOS 2455 3.9 20:34:51 17° SSE 20:37:56 25° ESE 20:42:42 10° NE
Cosmos 1812 2.8 20:34:20 10° N 20:38:10 59° ENE 20:40:30 22° SSE
NOSS 2-1 (D) 3.0 20:36:20 10° SSW 20:39:31 48° SE 20:42:47 10° NE
GP-B 3.1 20:35:25 10° N 20:39:53 89° E 20:44:01 12° S
Cosmos 2333 Rocket 3.0 20:35:04 10° NNW 20:40:26 41° NE 20:44:24 17° ESE
Cosmos 923 Rocket 4.3 20:37:08 10° SSW 20:42:28 76° WNW 20:47:51 10° NNE
BREEZE-M DEB (TANK) 4.5 20:39:15 10° W 20:42:51 43° SSW 20:49:45 17° SE
SPOT 1/Viking Rocket 3.9 20:38:27 10° S 20:43:31 64° WSW 20:48:43 10° NNW
ERS-1 Rocket 3.1 20:40:25 19° SSE 20:44:00 65° ENE 20:48:59 10° N
USA 245 3.8 20:42:07 13° S 20:46:16 67° WSW 20:50:05 10° NNW
SL-27 R/B 2.7 20:44:41 20° S 20:46:52 47° ESE 20:50:22 10° NNE
Cosmos 2322 4.4 20:42:11 10° NNW 20:47:40 44° NE 20:51:30 19° ESE
USA 276 4.2 20:50:27 10° WSW 20:52:25 16° SW 20:53:10 15° SSW
Okean 3 Rocket 3.6 20:48:05 11° S 20:52:29 90° NE 20:57:03 10° N
Cosmos 2056 Rocket 3.5 20:47:20 10° NNW 20:52:42 85° WSW 20:56:16 21° SSE
Cosmos 2237 Rocket 4.2 20:48:45 10° N 20:52:43 19° NE 20:56:40 10° E
Cosmos 1408 Rocket 3.8 20:50:55 23° SSE 20:53:23 49° E 20:57:34 10° NNE
Cosmos 2322 Rocket 2.6 20:48:11 10° NW 20:53:42 57° WSW 20:57:55 17° S
Meteor 2-14 Rocket 4.4 20:48:51 12° S 20:54:36 71° E 21:00:43 10° NNE
CARTOSAT-1 4.0 20:59:31 18° S 21:02:35 60° W 21:06:53 10° NNW
Meteor 1-10 Rocket 4.2 20:58:18 10° N 21:03:52 75° ENE 21:07:16 24° SSE
USA 234 4.2 20:58:22 10° E 21:04:33 46° N 21:10:45 10° WNW
Spot 2 Rocket 3.9 21:03:05 17° S 21:06:58 60° WSW 21:12:03 10° NNW
Cosmos 2219 Rocket 2.5 21:05:50 10° NNW 21:11:21 55° ENE 21:14:26 25° SE
Resurs 01 Rocket 4.0 21:11:05 10° SW 21:14:09 18° W 21:17:14 10° NW
BREEZE M DEB (TANK) 4.2 21:11:39 10° SW 21:15:52 56° SSE 21:42:24 10° E
Cosmos 1680 Rocket 4.3 21:11:22 10° SW 21:16:31 53° WNW 21:21:41 10° NNE
Cosmos 1151 Rocket 4.3 21:14:28 10° NNW 21:18:28 36° W 21:21:47 14° SSW
Cosmos 1515 Rocket 3.5 21:14:02 10° N 21:18:29 82° W 21:20:36 30° S
Terra 1.8 21:19:00 29° S 21:21:28 83° WSW 21:26:16 10° NNW
Cosmos 1553 Rocket 4.3 21:15:51 10° NNW 21:21:49 62° W 21:26:23 18° S
Cosmos 2285 Rocket 4.2 21:16:38 10° NNW 21:22:54 60° ENE 21:26:17 27° SE
Cosmos 2266 Rocket 4.0 21:19:57 24° S 21:23:43 67° E 21:29:55 10° NNE
SL-16 R/B 3.8 21:19:23 10° NW 21:24:02 27° WSW 21:28:19 11° SSW
Cosmos 2315 Rocket 4.2 21:21:27 10° N 21:27:44 60° ENE 21:30:56 29° SE
ATLAS 5 CENTAUR R/B 2.6 21:24:02 10° NW 21:29:20 58° NE 21:33:06 24° ESE
Cosmos 2333 4.2 21:24:58 10° NNW 21:30:36 81° WSW 21:33:17 32° SSE
Cosmos 2228 Rocket 3.2 21:29:33 10° N 21:33:56 60° ENE 21:35:16 41° SE
NOSS 2-1 (E) 3.8 21:34:36 10° WSW 21:37:46 48° NW 21:41:12 10° NNE
COSMOS 2428 2.8 21:33:15 10° NNW 21:38:58 72° ENE 21:41:31 34° SE
SPOT 5 3.7 21:36:48 22° SSW 21:39:04 39° W 21:43:14 10° NNW
ARIANE 5 R/B 4.0 21:36:32 18° SSW 21:39:12 32° W 21:43:12 10° NNW
Cosmos 1862 4.5 21:39:48 16° SW 21:42:35 39° WNW 21:46:22 10° N
Cosmos 883 Rocket 4.5 21:36:20 10° N 21:42:36 87° E 21:45:47 32° S
NOSS 3-1 (C) 4.2 21:37:14 10° NW 21:44:39 70° SW 21:49:23 29° SSE
Cosmos 1707 Rocket 4.4 21:40:57 10° N 21:45:00 36° ENE 21:45:57 32° ESE
Cosmos 292 Rocket 4.4 21:40:42 10° NNW 21:45:15 46° WSW 21:47:10 30° SSW
IRIDIUM 106 4.3 21:41:19 10° N 21:46:33 73° E 21:48:29 39° SSE
Cosmos 1048 Rocket 4.0 21:48:39 41° SSE 21:50:11 57° ESE 21:55:12 10° NNE
Cosmos 1655 Rocket 4.3 21:54:13 19° SSW 21:58:51 65° WNW 22:05:15 10° N
COSMOS 2487 2.3 22:00:10 73° WSW 22:00:20 76° WNW 22:03:44 10° NNE
ALOS 2 3.8 21:59:22 27° E 22:00:27 30° ENE 22:04:19 10° N
USA 229 DEB 3.9 21:53:18 10° NW 22:00:38 82° SW 22:04:27 33° SSE
USA 229 3.9 21:53:24 10° NW 22:00:44 83° SW 22:04:33 33° SSE
Cosmos 972 Rocket 3.9 21:59:17 32° SSW 22:01:46 89° WNW 22:06:45 10° NNE
Cosmos 2360 Rocket 3.6 21:58:20 10° NW 22:03:03 28° WSW 22:05:41 20° SW
Cosmos 1805 Rocket 3.5 22:02:11 53° S 22:03:12 83° E 22:07:39 10° N
Cosmos 2084 Rocket 3.8 22:04:04 10° NW 22:08:12 58° NE 22:09:18 43° E
CZ-4C R/B 4.3 22:04:01 10° NW 22:09:56 32° NNE 22:16:49 10° E
USA 267 3.4 22:05:56 10° ENE 22:12:15 49° SE 22:14:48 33° S
Cosmos 1500 Rocket 4.4 22:11:54 27° SW 22:13:53 45° WNW 22:18:11 10° N
Cosmos 1980 4.1 22:09:44 10° NNW 22:15:21 57° ENE 22:17:31 35° ESE
NOSS 0 Rocket 3.9 22:10:14 10° NNW 22:16:31 81° ENE 22:18:53 41° SE
NOSS 3-1 (A) 4.1 22:13:42 10° NW 22:21:08 68° SW 22:25:00 35° SSE
COSMOS 2455 3.1 22:17:52 13° SW 22:23:21 69° NW 22:29:24 10° NNE
Cosmos 2333 Rocket 3.1 22:19:29 10° NW 22:24:40 38° WSW 22:26:23 31° SW
Lacrosse 5 2.7 22:25:50 33° ESE 22:25:50 33° ESE 22:29:21 10° ENE
Cosmos 1452 Rocket 4.3 22:19:52 10° NW 22:24:48 42° WSW 22:26:16 34° SW
Meteor 1-20 Rocket 4.2 22:23:03 42° SSW 22:25:05 87° W 22:30:51 10° NNE
Nadezhda 2 Rocket 4.5 22:23:24 41° S 22:25:51 80° E 22:32:17 10° N
COBE Rocket 3.8 22:26:51 55° SSW 22:27:46 72° W 22:32:30 10° NNW
Cosmos 972 4.5 22:28:20 46° SSW 22:30:00 84° ESE 22:35:09 10° NNE
BREEZE-M R/B 2.9 22:27:33 10° WSW 22:31:56 47° E 22:35:35 10° ENE
Cosmos 2297 Rocket 2.8 22:32:07 38° ESE 22:32:34 38° ESE 22:37:46 10° NE
Cosmos 1500 3.4 22:34:30 59° ENE 22:34:30 59° ENE 22:38:01 10° NNE
Sich 1 3.3 22:34:10 49° SW 22:35:02 60° WNW 22:39:20 10° N
Cosmos 1244 Rocket 4.4 22:34:47 43° S 22:36:59 88° E 22:43:15 10° N
Cosmos 2237 Rocket 2.2 22:32:04 10° NNW 22:37:47 76° ENE 22:39:29 46° SE
Cosmos 1470 Rocket 4.0 22:43:08 46° E 22:43:08 46° E 22:47:13 10° NNE
BREEZE-M DEB (TANK) 4.1 22:40:51 10° W 22:42:20 18° W 22:42:20 18° W
Cosmos 1633 Rocket 2.8 22:44:04 78° SSE 22:44:19 83° E 22:48:41 10° N
Cosmos 2227 Rocket 2.9 22:44:30 36° ESE 22:44:50 36° ESE 22:49:58 10° NE
Cosmos 1110 Rocket 4.4 22:42:00 10° NNW 22:47:09 51° WSW 22:48:10 44° SW
USA 234 3.3 22:42:59 24° ESE 22:47:11 82° NNE 22:53:47 10° NW
Cosmos 1933 Rocket 4.4 22:49:28 37° E 22:49:28 37° E 22:53:34 10° NNE
Cosmos 1331 Rocket 4.3 22:44:33 10° NNW 22:49:39 53° WSW 22:50:32 47° SW
APEX 4.3 22:48:05 41° SSW 22:50:20 89° NW 22:57:07 10° NNE
Cosmos 1666 Rocket 3.6 22:50:45 62° SW 22:51:18 71° W 22:55:46 10° N
Cosmos 2242 Rocket 4.5 22:49:07 10° N 22:53:15 37° ENE 22:53:45 35° E
Cosmos 1340 Rocket 3.9 22:54:24 34° ENE 22:54:24 34° ENE 22:57:27 10° NNE
Cosmos 2219 Rocket 3.4 22:50:20 10° NW 22:54:58 27° WSW 22:56:08 25° SW
Cosmos 1378 4.3 22:52:41 10° N 22:55:52 33° ENE 22:55:52 33° ENE
NOSS 2-2 (E) 4.4 22:53:11 10° NW 22:58:32 79° SW 23:00:50 45° SSE
Terra 4.3 22:58:39 10° WSW 22:59:59 11° W 23:01:18 10° WNW
Spot 4 4.5 23:03:05 40° WSW 23:03:45 43° W 23:08:23 10° NNW
SL-16 R/B 2.8 23:01:45 10° NNW 23:07:17 50° NE 23:09:38 32° ESE
ATLAS 5 CENTAUR R/B 3.1 23:08:48 10° NW 23:13:58 36° WSW 23:14:35 35° SW
Cosmos 1862 Rocket 3.9 23:09:47 10° NNW 23:14:00 50° W 23:14:06 50° W
STPSAT 2 (USA 217) 4.4 23:09:54 10° NNW 23:14:31 88° ENE 23:14:46 80° SE
Okean 3 4.5 23:11:39 10° N 23:15:37 35° ENE 23:16:01 34° E
COSMOS 2428 4.3 23:18:32 10° NW 23:22:39 21° W 23:23:31 20° WSW
NOSS 2-2 (C) 4.4 23:18:13 10° NW 23:23:31 67° SW 23:25:11 49° S
Meteor 2-4 Rocket 4.0 23:17:46 10° NNW 23:23:38 62° W 23:24:59 49° SSW
Intercosmos 25 Rocket 4.2 23:24:02 45° ESE 23:24:22 46° E 23:29:56 10° NNE
Cosmos 1743 4.5 23:25:44 23° ENE 23:25:44 23° ENE 23:28:23 10° NE
Cosmos 1666 3.0 23:26:25 61° NW 23:26:25 61° NW 23:29:57 10° N
Meteor 1-11 Rocket 4.0 23:25:58 47° SE 23:26:56 53° E 23:32:18 10° NNE
Cosmos 1703 Rocket 3.4 23:25:09 10° N 23:29:33 84° E 23:29:38 83° ESE
Cosmos 1709 Rocket 4.0 23:30:39 49° SSE 23:32:25 73° E 23:38:48 10° NNE
PSLV R/B 3.9 23:29:06 10° NNE 23:33:50 57° E 23:34:07 56° ESE
Cosmos 1992 Rocket 3.9 23:30:32 10° NNW 23:35:48 89° ENE 23:36:41 63° SSE
ALOS 2 3.7 23:36:46 32° W 23:36:46 32° W 23:40:43 10° NNW
Meteor 1-5 Rocket 4.4 23:35:45 48° SW 23:37:19 69° WNW 23:43:14 10° N
Cosmos 909 Rocket 4.2 23:36:15 46° SSW 23:38:22 73° ESE 23:46:11 10° NE
Cosmos 1745 Rocket 4.2 23:39:16 42° SW 23:41:19 62° WNW 23:47:36 10° N
CZ-2D R/B 4.2 23:40:30 10° NE 23:43:40 16° E 23:45:32 13° ESE
Cosmos 2219 3.2 23:42:23 50° SW 23:43:58 80° WNW 23:49:47 10° NNE
Cosmos 1066 Rocket 4.2 23:41:20 10° NNW 23:47:16 89° ENE 23:48:43 54° SSE
Meteor 1-13 Rocket 4.2 23:45:30 10° NNW 23:51:16 74° W 23:52:26 56° SSW
Timation 1 Rocket 4.2 23:51:21 52° SSW 23:52:56 88° ESE 23:58:59 10° NNE
Meteor 1-23 Rocket 4.4 23:48:17 10° N 23:54:01 71° ENE 23:55:43 46° SE
